TimeMST,TemperatureF,Dew PointF,Humidity,Sea Level PressureIn,VisibilityMPH,Wind Direction,Wind SpeedMPH,Gust SpeedMPH,PrecipitationIn,Events,Conditions,WindDirDegrees,DateUTC
12:53 AM,1.9,-6.0,69,30.45,10.0,South,6.9,-,N/A,,Clear,190,2013-01-06 07:53:00
1:53 AM,1.9,-6.0,69,30.45,10.0,Calm,Calm,-,N/A,,Clear,0,2013-01-06 08:53:00
2:53 AM,1.9,-6.0,69,30.43,10.0,South,5.8,-,N/A,,Clear,170,2013-01-06 09:53:00
3:53 AM,-0.0,-8.0,69,30.43,10.0,South,8.1,-,N/A,,Clear,170,2013-01-06 10:53:00
4:53 AM,-0.0,-8.0,69,30.49,10.0,South,5.8,-,N/A,,Clear,170,2013-01-06 11:53:00
5:53 AM,1.9,-7.1,66,30.47,10.0,South,6.9,-,N/A,,Clear,180,2013-01-06 12:53:00
6:53 AM,-2.0,-9.0,72,30.52,10.0,SSW,5.8,-,N/A,,Clear,200,2013-01-06 13:53:00
7:53 AM,1.0,-8.0,66,30.48,10.0,SSE,6.9,-,N/A,,Clear,160,2013-01-06 14:53:00
9:53 AM,12.9,1.0,59,30.42,10.0,Calm,Calm,-,N/A,,Clear,0,2013-01-06 16:53:00
10:53 AM,19.9,1.9,46,30.36,10.0,South,4.6,-,N/A,,Clear,190,2013-01-06 17:53:00
11:53 AM,25.0,1.0,36,30.30,10.0,Calm,Calm,-,N/A,,Clear,0,2013-01-06 18:53:00
12:53 PM,28.9,6.1,38,30.22,10.0,NNW,8.1,-,N/A,,Clear,330,2013-01-06 19:53:00
1:53 PM,28.0,3.9,36,30.21,10.0,NNW,5.8,-,N/A,,Clear,340,2013-01-06 20:53:00
2:53 PM,28.9,3.9,35,30.18,10.0,Calm,Calm,-,N/A,,Clear,0,2013-01-06 21:53:00
3:53 PM,26.1,9.0,49,30.21,10.0,Calm,Calm,-,N/A,,Clear,0,2013-01-06 22:53:00
4:53 PM,25.0,3.0,39,30.22,10.0,NNW,6.9,-,N/A,,Clear,330,2013-01-06 23:53:00
5:53 PM,21.9,6.1,51,30.24,10.0,SSE,4.6,-,N/A,,Clear,150,2013-01-07 00:53:00
6:53 PM,19.9,7.0,57,30.25,10.0,Calm,Calm,-,N/A,,Mostly Cloudy,0,2013-01-07 01:53:00
7:53 PM,19.9,6.1,55,30.24,10.0,Calm,Calm,-,N/A,,Partly Cloudy,0,2013-01-07 02:53:00
8:53 PM,15.1,6.1,68,30.24,10.0,Calm,Calm,-,N/A,,Clear,0,2013-01-07 03:53:00
9:53 PM,15.1,5.0,64,30.21,10.0,South,9.2,-,N/A,,Partly Cloudy,170,2013-01-07 04:53:00
10:53 PM,14.0,3.9,64,30.16,10.0,South,10.4,-,N/A,,Partly Cloudy,190,2013-01-07 05:53:00
11:53 PM,12.0,3.0,67,30.14,10.0,South,6.9,-,N/A,,Clear,170,2013-01-07 06:53:00